Regional Weather Roundup
Issued by NWS

Home | Current Version | Previous Version | Text Only | Print | Product List | Glossary Off
Versions: 1 2 3 4 5 6 7 8 9 10 11 12 13 14 15 16 17 18 19 20 21 22 23 24 25 26 27 28 29 30 31 32 33 34 35 36 37 38 39 40 41 42 43 44 45 46 47 48 49 50

000
ASUS45 KTFX 300810
RWRMT
MONTANA REGIONAL WEATHER ROUNDUP
NATIONAL WEATHER SERVICE GREAT FALLS MT
200 AM MDT MON MAY 30 2016

NOTE: "FAIR" INDICATES FEW OR NO CLOUDS BELOW 12000 FEET WITH NO
SIGNIFICANT WEATHER AND/OR OBSTRUCTIONS TO VISIBILITY.

MTZ001>007-043-300900-
WEST OF THE DIVIDE

CITY           SKY/WX    TMP DP  RH WIND       PRES   REMARKS
KALISPELL      LGT RAIN  48  43  82 N8G16     30.03R
MISSOULA       CLOUDY    50  45  83 E3        30.05S
BUTTE          CLOUDY    41  36  82 SE3       30.08S
MULLAN PASS    MOCLDY    41  31  67 MISG      30.09R
ANACONDA         N/A     48  39  71 W6        30.07S
DEER LODGE       N/A     46  43  87 W3        30.07S
EUREKA           N/A     46  45  93 SW6       30.05
HAMILTON         N/A     52  45  76 CALM      30.06S
LIBBY            N/A     46  41  81 S3        30.05S
$$

MTZ008-052>055-300900-
SOUTHWEST MONTANA

CITY           SKY/WX    TMP DP  RH WIND       PRES   REMARKS
BOZEMAN        MOCLDY    52  41  66 W8        30.01R
DILLON         CLOUDY    50  36  58 S6        30.05R
W YELLOWSTONE  CLOUDY    43  39  87 CALM      30.09S
ENNIS          CLOUDY    46  39  76 S5        30.08S
$$

MTZ009-010-012-014-046-048-049-054-300900-
EAST SLOPES AND CENTRAL MONTANA

CITY           SKY/WX    TMP DP  RH WIND       PRES   REMARKS
CUT BANK       MOCLDY    47  40  76 NW22      29.98R
GREAT FALLS    PTCLDY    49  43  80 SW9       29.97S
MALMSTROM AFB  MOCLDY    52  45  76 SW13      29.96S
HELENA         PTCLDY    51  42  71 NE6       30.01S
CHOTEAU          N/A     50  41  71 W7G14     29.98R
$$

MTZ011-013-016-021-045-047-050-051-300900-
NORTH CENTRAL MONTANA

CITY           SKY/WX    TMP DP  RH WIND       PRES   REMARKS
HAVRE          PTCLDY    50  45  83 W7        29.91R
LEWISTOWN      CLOUDY    53  44  71 SW8       30.01R
N BAR RANCH    CLOUDY    50  39  66 SW15      30.01R
CHINOOK          N/A     50  46  87 CALM      29.91R
$$

MTZ017>020-022>027-061-062-300900-
NORTHEAST MONTANA

CITY           SKY/WX    TMP DP  RH WIND       PRES   REMARKS
GLASGOW        MOCLDY    55  44  66 E9        29.87F
JORDAN           N/A     53  45  74 NW6       29.92R
SIDNEY         CLEAR     48  42  80 N3        29.90F
WOLF POINT     CLOUDY    48  40  73 NE5       29.90S
POPLAR           N/A     46  43  87 CALM      29.90F
$$

MTZ028>42-056>058-300900-
SOUTHCENTRAL AND SOUTHEAST MONTANA

CITY           SKY/WX    TMP DP  RH WIND       PRES   REMARKS
BAKER          CLEAR     48  42  80 SE7       29.93F
BILLINGS       CLOUDY    55  47  74 N15       29.91S
LIVINGSTON     LGT RAIN  57  39  51 CALM      30.01R
MILES CITY     CLOUDY    61  47  59 NE3       29.88F
FORSYTH          N/A     63  46  55 N5        29.87S
$$

REGIONAL REPORTS...DAKOTAS

CITY           SKY/WX    TMP DP  RH WIND       PRES   REMARKS
WILLISTON      CLEAR     44  40  85 CALM      29.91F
MINOT          CLEAR     56  46  69 S3        29.91S
DICKINSON      CLEAR     50  46  86 S8        29.91F
BEACH            N/A     48  45  87 S5        29.95S
CROSBY           N/A     48  48 100 SW8       29.92F
WATFORD CITY     N/A     45  41  87 CALM      29.92F
BISMARCK       CLEAR     55  51  86 E3        29.93F
GRAND FORKS    CLEAR     50  45  83 CALM      29.91F
FARGO          CLOUDY    62  48  60 SE6       29.93F
BUFFALO SD       N/A     53  47  79 SE9       29.87F
RAPID CITY     CLEAR     50  49  96 W3        29.94F
$$

REGIONAL REPORTS...WYOMING/IDAHO/WASHINGTON

CITY           SKY/WX    TMP DP  RH WIND       PRES   REMARKS
GILLETTE       PTCLDY    52  43  71 S13       29.92F
SHERIDAN       MOCLDY    51  46  83 NE5       29.89F
BUFFALO WY     CLEAR     63  35  35 CALM      29.94F
CODY           CLEAR     54  36  50 W3        29.97S
YELLOWSTONE LA   N/A     39  37  92 CALM      30.18S
IDAHO FALLS    CLOUDY    51  42  71 SW10      30.04S
SALMON         PTCLDY    52  37  58 SE7       30.04R
BOISE          CLEAR     59  41  51 W10       30.03R
SPOKANE        PTCLDY    49  36  61 NW5       30.10R
$$

REGIONAL REPORTS...ALBERTA

CITY           SKY/WX    TMP DP  RH WIND       PRES   REMARKS
EDMONTON       MOCLDY    48  43  81 NW13      30.00S
CALGARY        LGT RAIN  43  41  93 N13G20    30.02R
LETHBRIDGE     MOCLDY    46  43  87 NW18G24   30.00R
MEDICINE HAT   PTCLDY    52  43  71 SW5       29.88R
WATERTON GATE    N/A     43  39  87 NE9         N/A
CARDSTON         N/A     43  41  93 N7          N/A
MILK RIVER       N/A     46  41  81 N21G29      N/A
ONEFOUR          N/A     48  41  76 NW15        N/A
$$

REGIONAL REPORTS...SASKATCHEWAN

CITY           SKY/WX    TMP DP  RH WIND       PRES   REMARKS
SWIFT CURRENT  MOCLDY    52  43  71 S9        29.86S
REGINA         PTCLDY    50  43  76 SE6       29.87F
SASKATOON      CLEAR     48  48 100 NE8       29.91S
CYPRESS HILLS    N/A     45  36  70 SW2         N/A
VAL MARIE        N/A     46  43  87 NE3         N/A
ROCKGLEN         N/A     52  39  62 SW3         N/A
ASSINIBOIA       N/A     48  48 100 N7          N/A
$$



USA.gov is the U.S. government's official web portal to all federal, state and local government web resources and services.